Location: Hermaringen
(48.5952°N, 10.2585°E)
Time: 00:36:45
(UTC+00:00)

Altair - Pass Details

Date: 22 February 2026
Orbit: 1502 x 1682 km, 47.2° (Epoch: 10 March)

Event Time Altitude Azimuth Distance (km) Brightness Sun altitude
Rises 07:29:19 0° 284° (WNW) 4,671 9.4 10.7°
Reaches altitude 10° 07:32:20 10° 281° (WNW) 3,704 9.0 11.1°
Maximum altitude 07:41:34 66° 202° (SSW) 1,686 8.0 12.4°
Drops below altitude 10° 07:51:10 10° 123° (ESE) 3,833 13.1 13.8°
Sets 07:54:21 0° 121° (ESE) 4,841 12.1 14.2°
